Change the Weather History Date:

Tuesday, April 23, 2013

  Actual Average Record
Temperature  
Mean Temperature -15 °F -  
Max Temperature -6 °F - - ()
Min Temperature -24 °F - - ()
Degree Days  
Heating Degree Days 80    
Moisture  
Dew Point -20 °F    
Average Humidity 74    
Maximum Humidity 79    
Minimum Humidity 57    
Precipitation  
Precipitation 0.00 in - - ()
Sea Level Pressure  
Sea Level Pressure 29.93 in    
Wind  
Wind Speed 7 mph ()    
Max Wind Speed 12 mph    
Max Gust Speed -    
T = Trace of Precipitation, MM = Missing Value Source: Averaged Metar Reports

Daily Weather History Graph

Daily Weather History Graph

Search for Another Location

Airport or City:

Trip Planner

Search our weather history database for the weather conditions in past years. The results will help you decide how hot, cold, wet, or windy it might be!

Date:

Astronomy

Apr. 23, 2013 Rise Set
Actual Time 3:17 AM MDT 10:48 PM MDT
Civil Twilight Sun does not rise Sun does not rise
Nautical Twilight Sun does not rise Sun does not rise
Astronomical Twilight Sun does not rise Sun does not rise
Moon 7:07 PM MDT (4/23) 3:55 AM MDT (4/23)
Length of Visible Light 24h 00m
Length of Day
19h 30m
Waxing Gibbous, 94% of the Moon is Illuminated
Apr 23
Waxing Gibbous
Apr 25
Full
May 2
Last Quarter
May 9
New
May 17
First Quarter

Hourly Weather History & Observations

Time (MDT) Temp. Windchill Dew Point Humidity Pressure Visibility Wind Dir Wind Speed Gust Speed Precip Events Conditions
12:00 AM -16 °F - -21 °F 66% 29.84 in - NW 6.9 mph - -  
12:00 AM -16.2 °F -32.5 °F -21.1 °F 79% 29.84 in - NW 6.9 mph - N/A   Unknown
1:00 AM -17.3 °F -35.3 °F -22.4 °F 78% 29.85 in - NNW 8.1 mph - N/A   Unknown
2:00 AM -19.5 °F -34.7 °F -24.3 °F 78% 29.87 in - West 5.8 mph - N/A   Unknown
3:00 AM -22.9 °F -40.5 °F -28.3 °F 76% 29.89 in - West 6.9 mph - N/A   Unknown
4:00 AM -23.4 °F -41.2 °F -29.2 °F 74% 29.91 in - West 6.9 mph - N/A   Unknown
5:00 AM -24.0 °F -41.8 °F -29.9 °F 74% 29.93 in - West 6.9 mph - N/A   Unknown
6:00 AM -23 °F - -29 °F 60% 29.94 in - West 8.1 mph - -  
6:00 AM -22.9 °F -42.1 °F -28.8 °F 74% 29.94 in - West 8.1 mph - N/A   Unknown
7:00 AM -18.2 °F -37.7 °F -23.8 °F 76% 29.94 in - West 9.2 mph - N/A   Unknown
8:00 AM -17.9 °F -35.9 °F -23.8 °F 74% 29.95 in - West 8.1 mph - N/A   Unknown
9:00 AM -13.0 °F -30.0 °F -18.4 °F 77% 29.96 in - West 8.1 mph - N/A   Unknown
10:00 AM -13.2 °F -31.5 °F -18.6 °F 77% 29.97 in - West 9.2 mph - N/A   Unknown
11:00 AM -12.1 °F -32.3 °F -17.3 °F 78% 29.97 in - West 11.5 mph - N/A   Unknown
12:00 PM -11 °F - -16 °F 66% 29.97 in - WNW 9.2 mph - -  
12:00 PM -10.8 °F -28.6 °F -16.2 °F 77% 29.97 in - WNW 9.2 mph - N/A   Unknown
1:00 PM -9.4 °F -26.8 °F -15.0 °F 76% 29.97 in - WNW 9.2 mph - N/A   Unknown
2:00 PM -8.5 °F -23.2 °F -14.3 °F 76% 29.97 in - WNW 6.9 mph - N/A   Unknown
3:00 PM -7.4 °F -21.9 °F -13.0 °F 77% 29.97 in - WNW 6.9 mph - N/A   Unknown
4:00 PM -6.9 °F -17.9 °F -12.6 °F 76% 29.97 in - NW 4.6 mph - N/A   Unknown
6:00 PM -6 °F - -13 °F 57%  in - Calm Calm - -  
6:00 PM -6.3 °F - -13.4 °F 72% - - North - - N/A   Unknown
7:00 PM -8.7 °F - -14.4 °F 76% - - North - - N/A   Unknown
8:00 PM -13.4 °F -27.4 °F -18.6 °F 77% 29.93 in - WSW 5.8 mph - N/A   Unknown
9:00 PM - - - N/A% - - North - - N/A   Unknown
10:00 PM -16.8 °F -35.9 °F -21.8 °F 78% 29.88 in - SSE 9.2 mph - N/A   Unknown
11:00 PM -15.7 °F -34.6 °F -20.4 °F 79% 29.86 in - SE 9.2 mph - N/A   Unknown